Flag for Azerbaijan Weather past 2 weeks in Ganja, Azerbaijan

Now
37 °F

Passing clouds.


Feels Like: 34 °F
Forecast: 39 / 55 °F
Wind: 5 mph from Southwest

Location: Gyanca Airport

Current Time: Mar 1, 2015 at 7:13:33 AM

Latest Report: Mar 1, 2015 at 7:00 AM


Visibility: 4 mi

Pressure: 29.92 "Hg

Humidity: 87%

Dew point: 34 °F

Location of GanjaLocation

Historic Weather in Ganja — Graph

°F

Ganja temperature yesterday

Maximum temperature yesterday: 48 °F (at 3:00 PM)
Minimum temperature yesterday: 39 °F (at 4:00 AM)
Average temperature yesterday: 43 °F

Past Weeks' High & Low Weather Summary

 TemperatureHumidityPressure
High52 °F (Feb 16, 4:30 PM)100% (Feb 14, 7:00 AM)30.48 "Hg (Feb 14, 7:00 AM)
Low30 °F (Feb 16, 6:00 AM)44% (Feb 16, 4:30 PM)29.83 "Hg (Feb 20, 7:00 AM)
Average39 °F87%30.14 "Hg
* Reported Feb 14 6:00 AM — Mar 1 6:00 AM, Ganja, Weather by CustomWeather, © 2015

Note: Actual official high and low records may vary slightly from our data, if they occured in-between our weather recording intervals... More about our weather records

Advertising

Ganja weather history for previous 24 hours

 ConditionsComfort  
Time TempWeatherWind HumidityBarometerVisibility
6:00 AM
Sun, Mar 1
39 °FPassing clouds.7 mph81%29.92 "Hg4 mi
5:30 AM37 °FPassing clouds.7 mph87%29.92 "Hg4 mi
5:00 AM39 °FPassing clouds.5 mph87%29.95 "Hg4 mi
4:30 AM37 °FPassing clouds.5 mph93%29.95 "Hg4 mi
4:00 AM39 °FPassing clouds.5 mph87%29.95 "Hg4 mi
3:30 AM39 °FPassing clouds.5 mph87%29.95 "Hg4 mi
3:00 AM41 °FPassing clouds.7 mph87%29.95 "Hg4 mi
2:30 AM41 °FPassing clouds.1 mph87%29.95 "Hg4 mi
2:00 AM41 °FPassing clouds.3 mph87%29.95 "Hg4 mi
1:30 AM41 °FPassing clouds.1 mph87%29.98 "HgN/A
12:30 AM41 °FPassing clouds.5 mph87%29.95 "HgN/A
12:00 AM41 °FPassing clouds.5 mph87%29.95 "HgN/A
11:30 PM
Sat, Feb 28
43 °FPassing clouds.5 mph81%29.98 "HgN/A
11:00 PM43 °FPassing clouds.5 mph81%29.98 "HgN/A
10:30 PM43 °FPassing clouds.1 mph76%29.98 "HgN/A
10:00 PM43 °FPassing clouds.No wind76%29.98 "HgN/A
9:30 PM45 °FPassing clouds.No wind71%29.98 "HgN/A
9:00 PM45 °FPassing clouds.No wind76%29.98 "Hg5 mi
8:30 PM45 °FPassing clouds.No wind71%29.98 "Hg5 mi
8:00 PM46 °FPassing clouds.5 mph66%29.98 "Hg5 mi
7:30 PM46 °FPartly sunny.3 mph71%29.98 "Hg5 mi
7:00 PM46 °FPartly sunny.No wind66%29.98 "Hg5 mi
6:30 PM46 °FPartly sunny.2 mph66%29.98 "Hg5 mi
6:00 PM46 °FPartly sunny.2 mph66%29.98 "Hg5 mi
5:30 PM46 °FPartly sunny.5 mph66%29.98 "Hg5 mi
5:00 PM46 °FPartly sunny.5 mph66%29.98 "Hg5 mi
4:30 PM46 °FPartly sunny.3 mph66%29.98 "Hg5 mi
4:00 PM46 °FPartly sunny.5 mph66%29.98 "Hg5 mi
3:30 PM46 °FPartly sunny.6 mph66%30.01 "Hg4 mi
3:00 PM48 °FPartly sunny.3 mph62%30.01 "Hg4 mi
2:30 PM46 °FOvercast.No wind82%30.04 "Hg4 mi
2:00 PM46 °FFog.1 mph82%30.07 "Hg2 mi
1:30 PM45 °FFog.No wind87%30.09 "Hg2 mi
1:00 PM45 °FFog.No wind87%30.09 "Hg2 mi
12:30 PM45 °FFog.No wind87%30.12 "Hg2 mi
12:00 PM43 °FFog.2 mph93%30.12 "Hg2 mi
11:30 AM43 °FFog.3 mph93%30.12 "Hg2 mi
11:00 AM43 °FFog.3 mph93%30.12 "Hg2 mi
10:30 AM43 °FFog.2 mph93%30.15 "Hg2 mi
10:00 AM43 °FFog.No wind87%30.15 "Hg2 mi
9:30 AM41 °FFog.2 mph93%30.15 "Hg2 mi
9:00 AM41 °FFog.No wind93%30.15 "Hg3 mi
8:30 AM41 °FFog.No wind93%30.15 "Hg2 mi
8:00 AM41 °FFog.No wind93%30.15 "Hg2 mi
7:30 AM41 °FFog.No wind93%30.15 "Hg2 mi
7:00 AM41 °FFog.2 mph93%30.18 "Hg2 mi
Weather by CustomWeather, © 2015

See weather overviewHow to use our weather pages